Temperature
16 16 16 16 16 16 16 15 15 14 14 14 13 13 13 13 13 13 13 13 13 13 13 13 13 13 13 12 12 12 12 12 12 12 12 12 12 11
16 16 16 16 16 15 15 15 15 15 14 13 13 13 13 13 13 13 12 12 12 12 12 12 12 12 12 12 12 12 12 12 12 12 11 11 11 11
16 16 16 16 15 15 15 15 15 14 14 13 13 12 12 12 12 12 12 12 12 12 12 12 12 12 12 12 12 12 12 11 11 11 11 11 11 11
16 16 16 16 15 15 15 15 14 14 14 13 13 12 12 12 12 12 12 12 12 11 11 11 11 11 11 11 11 11 11 11 11 11 10 10 10 10
16 16 16 15 15 15 15 15 14 14 14 13 13 12 12 12 12 12 11 11 11 11 11 11 11 11 11 11 10 10 10 10 10 10 10 10 10 9
16 15 15 15 15 15 15 14 14 14 13 13 13 12 12 11 11 11 11 11 11 11 11 10 10 10 10 10 10 10 10 10 9 9 9 9 9 9
15 15 15 15 15 14 14 14 14 13 13 13 12 12 12 11 11 11 11 11 10 10 10 10 10 10 10 10 10 9 9 9 9 9 9 9 8 8
15 15 15 14 14 14 14 14 13 13 13 13 12 12 12 11 11 11 10 10 10 10 10 10 10 10 9 9 9 9 9 9 9 8 8 8 8 8
15 15 14 14 14 14 14 13 13 13 12 12 12 12 11 11 11 11 10 10 10 10 10 10 10 9 9 9 9 9 9 8 8 8 8 8 7 7
15 14 14 14 14 13 13 13 13 12 12 12 12 11 11 11 11 10 10 10 10 10 10 9 9 9 9 9 9 8 8 8 8 8 8 7 7 7
14 14 14 14 13 13 13 13 12 12 12 12 11 11 11 11 10 10 10 10 10 10 9 9 9 9 9 9 8 8 8 8 8 8 7 7 7 7
14 14 14 13 13 13 13 13 12 12 12 12 11 11 11 10 10 10 10 10 10 9 9 9 9 8 8 8 8 8 8 8 8 7 7 7 7 7
14 14 13 13 13 13 12 12 12 12 12 11 11 11 10 10 10 10 10 10 9 9 9 9 9 8 8 8 8 8 8 8 7 7 7 7 7 6
14 13 13 13 13 12 12 12 12 11 11 11 11 11 10 10 10 10 9 9 9 9 9 8 8 8 8 8 8 8 8 7 7 7 7 7 7 6
13 13 13 12 12 12 12 11 11 11 11 11 10 10 10 10 9 9 9 9 9 9 8 8 8 8 8 8 8 8 7 7 7 7 7 7 7 6
13 13 12 12 12 12 11 11 11 11 10 10 10 10 10 9 9 9 9 9 8 8 8 8 8 8 8 8 7 7 7 7 7 7 7 7 6 6
13 12 12 12 12 11 11 11 11 10 10 10 10 10 9 9 9 9 9 8 8 8 8 8 8 8 7 7 7 7 7 7 7 7 7 7 6 6
12 12 12 12 11 11 11 11 10 10 10 10 10 9 9 9 9 9 8 8 8 8 8 8 8 7 7 7 7 7 7 7 7 7 6 6 6 6
12 12 12 11 11 11 10 10 10 10 10 10 9 9 9 9 8 8 8 8 8 8 8 8 7 7 7 7 7 7 7 7 7 6 6 6 6 6
12 12 11 11 11 11 10 10 10 10 10 9 9 9 9 8 8 8 8 8 8 8 7 7 7 7 7 7 7 7 7 6 6 6 6 6 6 6
12 11 11 11 11 10 10 10 10 10 9 9 9 9 9 8 8 8 8 8 7 7 7 7 7 7 7 7 6 6 6 6 6 6 6 6 5 5
11 11 11 11 11 10 10 10 10 9 9 9 9 9 8 8 8 8 8 7 7 7 7 7 7 7 6 6 6 6 6 6 6 6 5 5 5 5
11 11 11 11 10 10 10 10 10 9 9 9 9 8 8 8 8 8 7 7 7 7 7 7 7 6 6 6 6 6 6 6 6 5 5 5 5 5
Wind_Speed
2 2 2 1 2 2 3 4 4 2 1 0 1 2 4 6 8 8 8 9 9 8 8 8 8 9 9 9 8 8 8 7 7 8 8 7 7 6
2 2 1 1 1 2 2 2 2 3 2 1 1 1 3 6 8 9 8 10 11 10 10 10 10 11 11 10 10 10 9 9 9 10 10 10 10 10
1 2 2 2 2 2 3 3 3 3 4 2 1 2 3 4 5 7 8 8 9 11 11 11 11 11 11 11 11 11 11 10 9 9 9 10 10 10
2 2 2 2 3 2 3 4 3 3 5 4 2 2 3 3 3 5 6 6 7 10 11 11 11 11 11 11 11 11 10 10 10 9 9 8 9 8
2 2 2 3 3 3 3 4 4 4 4 5 3 2 2 2 3 3 4 4 6 7 8 9 9 10 9 10 10 9 9 9 9 9 9 8 9 8
2 3 2 3 3 4 4 4 5 6 5 5 4 3 2 1 2 2 2 2 3 4 5 6 7 7 7 7 7 7 7 7 7 7 8 7 7 7
3 3 3 4 6 5 4 5 6 5 5 5 4 3 2 2 1 1 2 1 1 2 2 3 3 3 4 4 4 5 5 5 5 5 6 6 5 6
3 2 3 4 5 6 7 8 8 7 6 5 3 3 3 2 2 2 2 1 0 0 1 1 1 1 1 2 2 3 3 3 4 4 4 4 4 4
2 3 3 3 5 5 6 7 6 6 7 5 5 4 4 4 4 3 2 2 1 1 1 0 0 0 1 1 1 1 2 2 2 2 2 2 2 2
3 3 3 3 4 6 6 5 4 3 3 3 4 3 3 4 5 4 3 2 1 1 1 0 0 1 1 1 0 1 2 2 2 2 2 2 2 1
2 3 4 4 5 7 7 6 5 3 4 5 4 4 4 5 6 4 3 2 0 1 1 1 0 1 1 1 2 2 3 4 4 4 4 3 3 2
2 2 4 5 7 8 6 6 5 3 3 3 4 4 4 5 5 4 4 3 1 1 1 1 1 1 1 1 2 2 3 4 5 5 5 5 5 3
3 2 2 6 7 7 6 5 5 5 4 4 3 3 3 2 2 2 3 3 2 2 2 2 1 1 1 1 2 2 3 3 3 4 5 6 6 5
4 3 4 7 7 6 5 5 7 6 4 4 3 2 1 1 0 1 2 2 3 2 3 3 2 2 1 2 2 1 2 3 3 3 4 4 6 8
4 6 7 8 7 5 5 6 6 4 4 3 2 1 1 1 0 0 0 0 0 1 1 3 2 2 2 2 2 2 2 2 3 3 3 4 4 4
5 6 8 8 6 5 5 4 4 3 3 3 2 1 1 1 1 0 0 0 0 1 2 0 2 2 2 2 2 3 2 2 2 2 3 3 4 5
7 4 4 3 3 3 3 3 3 3 2 2 2 2 1 1 1 0 1 1 0 1 2 1 1 1 1 2 2 3 3 3 3 2 2 3 3 4
8 4 4 4 4 4 3 3 2 3 2 2 2 2 2 2 1 1 1 1 1 1 2 1 1 0 1 2 4 4 3 3 3 3 3 3 5 5
6 5 5 5 5 4 4 4 3 3 3 3 3 3 3 2 2 2 1 1 1 2 2 2 1 1 3 5 3 4 4 3 3 3 3 4 5 5
5 6 6 5 5 5 5 4 4 3 3 3 3 3 3 3 3 3 3 3 2 2 2 2 2 3 4 4 4 3 5 4 3 4 4 4 5 6
6 6 5 5 5 5 5 5 5 4 4 4 4 4 3 3 3 3 3 3 3 2 3 3 4 4 3 2 3 4 3 5 7 4 4 4 4 4
6 6 6 6 5 5 5 5 4 4 4 4 4 4 4 4 4 4 4 3 3 3 4 4 2 1 2 3 4 5 5 4 4 6 8 7 4 4
6 6 6 6 6 5 5 5 5 5 4 4 4 4 4 4 4 4 4 4 3 3 3 3 2 2 2 3 4 4 5 5 4 3 4 6 10 12
Wind_Direction
162 155 157 171 171 175 171 169 160 161 149 39 42 32 50 61 57 63 66 67 72 81 91 91 84 79 80 78 77 79 82 81 77 76 76 79 81 79
141 132 130 129 131 142 155 156 156 154 152 103 66 54 65 72 67 67 67 68 68 72 78 82 82 80 78 79 78 78 79 81 84 83 80 78 78 77
119 125 120 117 122 133 138 133 132 135 139 116 80 76 70 72 67 69 68 68 70 69 74 79 80 80 79 78 77 77 79 81 80 82 82 81 81 80
127 119 115 116 106 116 127 129 134 134 138 138 113 91 78 81 76 74 70 70 72 69 72 74 78 79 79 78 77 75 76 77 76 79 82 84 86 83
128 127 127 119 107 112 116 119 120 118 119 134 129 108 93 89 81 78 69 59 71 69 69 68 71 75 76 77 77 79 79 79 78 79 81 83 83 81
112 117 120 128 132 128 119 118 119 115 116 123 123 116 101 96 103 101 81 57 57 60 63 64 63 68 70 74 77 83 87 88 87 85 84 83 84 84
93 98 108 115 125 132 134 135 131 128 128 129 129 119 118 139 152 159 129 92 50 46 55 49 53 58 61 72 81 85 95 99 96 90 88 87 88 88
117 98 98 103 115 115 120 132 140 144 147 144 147 159 172 173 161 156 141 128 129 26 101 49 69 70 48 72 101 109 113 112 109 106 99 97 98 95
137 130 123 110 113 118 112 112 114 123 144 155 162 180 184 183 170 168 177 173 185 160 145 93 44 351 316 15 133 148 150 143 131 132 135 133 124 106
141 146 142 133 134 131 124 116 110 111 133 153 169 181 181 180 179 175 168 141 94 96 157 178 277 282 327 338 307 216 192 187 191 192 195 202 206 207
143 140 144 140 138 136 132 128 118 101 96 105 117 126 137 146 152 140 135 139 170 250 188 189 236 293 300 294 282 271 249 237 235 231 230 232 233 242
147 137 141 143 142 142 142 141 141 140 121 102 88 91 106 124 143 163 171 171 162 219 189 184 184 195 271 277 278 275 264 254 248 244 242 245 246 245
167 164 153 141 140 144 143 148 155 146 133 119 106 94 89 100 133 160 175 182 191 223 193 183 191 200 229 271 288 265 252 261 259 254 255 255 256 246
177 170 153 142 138 139 137 130 129 129 125 121 117 114 117 135 196 200 197 206 216 234 211 189 194 198 210 250 269 277 272 267 256 257 265 268 264 257
162 153 144 140 132 127 123 126 130 132 133 138 153 177 197 220 170 102 1 217 294 311 239 213 203 190 214 241 255 271 284 283 257 261 268 269 270 267
133 126 124 124 119 118 117 127 137 147 153 164 172 170 143 132 139 151 186 258 31 336 359 338 207 195 213 241 246 265 268 272 276 266 268 274 276 267
139 126 124 127 129 127 128 137 146 146 156 166 166 162 162 166 196 181 166 147 178 278 315 349 20 171 233 244 261 266 266 270 269 261 261 285 285 276
142 154 162 163 169 171 171 170 172 179 184 181 179 179 179 184 189 170 156 176 214 263 277 293 319 329 303 262 236 256 265 267 275 266 253 275 287 286
160 180 181 184 186 184 189 192 197 200 189 185 192 197 193 192 190 196 198 212 249 271 280 279 270 242 279 297 290 233 248 271 274 274 266 260 271 283
190 194 195 194 194 193 193 197 202 199 191 195 202 203 197 194 198 210 216 221 236 255 273 277 263 250 252 272 284 287 244 244 260 272 279 275 274 280
198 201 200 196 196 197 198 196 199 203 200 197 202 203 200 198 209 217 218 218 227 244 262 272 273 258 243 243 269 284 284 249 239 251 269 282 293 295
200 199 201 201 198 199 198 196 199 204 201 204 208 207 205 204 211 214 217 222 234 245 258 273 290 258 214 238 269 285 293 306 277 254 251 247 271 286
202 201 202 203 202 199 196 195 199 207 207 206 209 207 203 206 213 217 222 229 240 252 262 271 277 255 251 255 269 281 291 301 303 305 294 265 254 262
Height
1543 1543 1544 1544 1544 1544 1544 1545 1545 1545 1546 1546 1546 1546 1546 1546 1546 1545 1545 1544 1544 1543 1543 1543 1543 1543 1543 1543 1544 1544 1544 1544 1544 1544 1544 1544 1544 1543
1542 1542 1542 1542 1543 1543 1543 1543 1543 1544 1544 1545 1545 1545 1546 1546 1546 1545 1545 1544 1544 1543 1543 1543 1543 1543 1543 1543 1543 1543 1543 1543 1543 1542 1543 1543 1542 1542
1541 1541 1541 1541 1541 1541 1541 1541 1541 1542 1542 1543 1544 1545 1545 1545 1545 1545 1545 1544 1544 1544 1543 1543 1543 1543 1543 1543 1543 1543 1542 1542 1542 1541 1541 1541 1541 1541
1540 1540 1540 1540 1540 1540 1540 1540 1540 1541 1542 1542 1543 1544 1544 1545 1545 1545 1545 1545 1544 1544 1543 1543 1543 1543 1543 1543 1542 1542 1542 1541 1541 1541 1541 1541 1540 1540
1539 1539 1539 1539 1539 1539 1539 1539 1540 1540 1541 1542 1543 1544 1544 1545 1545 1545 1545 1545 1545 1544 1544 1543 1543 1543 1543 1542 1542 1542 1542 1541 1541 1541 1541 1540 1540 1539
1538 1538 1538 1538 1538 1538 1538 1539 1539 1540 1541 1541 1542 1543 1543 1544 1545 1545 1545 1545 1545 1544 1544 1543 1543 1543 1543 1542 1542 1542 1542 1541 1541 1541 1540 1540 1539 1539
1538 1538 1538 1538 1538 1538 1538 1539 1539 1540 1540 1541 1541 1542 1543 1543 1544 1544 1544 1544 1544 1544 1544 1544 1543 1543 1542 1542 1541 1541 1541 1541 1541 1541 1540 1539 1539 1539
1537 1537 1537 1538 1538 1538 1538 1539 1539 1540 1540 1540 1541 1541 1542 1542 1543 1543 1543 1543 1543 1544 1543 1543 1543 1542 1542 1542 1541 1541 1541 1541 1540 1540 1540 1539 1539 1538
1536 1536 1537 1537 1537 1538 1538 1538 1539 1539 1540 1541 1541 1541 1541 1541 1542 1542 1543 1543 1543 1543 1543 1542 1542 1542 1542 1541 1541 1541 1540 1540 1540 1539 1539 1539 1538 1538
1535 1535 1536 1536 1537 1537 1538 1538 1538 1539 1540 1540 1540 1541 1541 1541 1541 1542 1542 1542 1542 1543 1543 1542 1542 1541 1541 1541 1540 1540 1540 1539 1539 1538 1538 1537 1537 1536
1533 1534 1535 1535 1536 1537 1537 1537 1538 1539 1539 1540 1540 1540 1540 1541 1541 1541 1541 1541 1541 1541 1541 1541 1540 1540 1540 1540 1540 1539 1539 1538 1537 1537 1536 1536 1535 1535
1532 1532 1533 1534 1535 1536 1536 1537 1537 1538 1539 1539 1539 1539 1540 1540 1540 1540 1540 1540 1540 1540 1540 1539 1539 1538 1538 1538 1538 1538 1537 1537 1536 1535 1535 1534 1534 1533
1530 1531 1532 1533 1534 1534 1535 1536 1537 1537 1537 1538 1538 1538 1539 1539 1539 1539 1539 1539 1539 1539 1539 1538 1537 1537 1537 1536 1536 1536 1535 1535 1534 1533 1533 1532 1531 1531
1528 1529 1530 1531 1532 1533 1534 1534 1535 1536 1536 1536 1537 1537 1537 1538 1538 1538 1538 1538 1538 1538 1537 1537 1536 1536 1535 1535 1534 1534 1533 1533 1532 1531 1531 1530 1529 1528
1526 1527 1528 1530 1530 1531 1532 1533 1534 1534 1535 1535 1535 1536 1536 1537 1537 1537 1536 1536 1536 1536 1535 1535 1535 1534 1534 1533 1532 1532 1531 1531 1530 1529 1528 1527 1526 1525
1523 1525 1526 1527 1528 1529 1530 1531 1532 1533 1533 1534 1534 1535 1535 1535 1535 1535 1535 1534 1534 1534 1534 1533 1533 1533 1532 1532 1531 1530 1529 1528 1527 1526 1525 1524 1523 1522
1521 1522 1524 1525 1525 1527 1528 1529 1530 1530 1531 1532 1533 1533 1533 1533 1533 1533 1533 1533 1533 1532 1532 1532 1532 1531 1531 1530 1529 1528 1527 1526 1525 1524 1522 1521 1520 1519
1518 1519 1520 1521 1523 1524 1525 1526 1527 1528 1529 1530 1530 1531 1531 1531 1531 1531 1531 1531 1531 1531 1530 1530 1529 1529 1529 1527 1527 1525 1524 1523 1522 1521 1520 1518 1517 1516
1515 1516 1517 1518 1520 1521 1522 1523 1524 1526 1526 1527 1527 1528 1528 1528 1529 1529 1529 1529 1528 1528 1528 1528 1527 1526 1525 1524 1524 1523 1522 1520 1519 1518 1517 1515 1513 1512
1511 1513 1514 1515 1516 1517 1519 1520 1521 1522 1523 1524 1524 1525 1525 1526 1526 1526 1526 1526 1526 1526 1526 1525 1525 1524 1523 1522 1520 1520 1519 1517 1516 1514 1513 1511 1509 1508
1506 1508 1510 1512 1513 1514 1515 1516 1518 1519 1519 1520 1521 1522 1522 1522 1522 1523 1523 1523 1523 1523 1522 1522 1522 1521 1520 1519 1517 1516 1515 1514 1512 1511 1509 1507 1505 1503
1503 1505 1506 1507 1509 1510 1512 1513 1514 1514 1515 1516 1517 1518 1518 1519 1519 1519 1520 1520 1520 1520 1519 1519 1518 1517 1516 1515 1513 1512 1511 1510 1508 1507 1505 1504 1501 1498
1499 1501 1502 1503 1505 1506 1507 1508 1510 1510 1511 1512 1513 1514 1514 1515 1515 1516 1516 1516 1516 1516 1516 1515 1514 1513 1512 1511 1510 1509 1507 1506 1504 1502 1501 1500 1498 1496